COSMOS 1275 DEB, 39961

Orbit data source: Space-Track

COSMOS 1275 DEB, 39961 is space debris in LEO originally from a launch on Thu, 04 Jun 1981 UTC launched from the Plesetsk Missile And Space Complex (PKMTR). Debris objects in space refer to the collection of defunct objects orbiting the Earth. Examples of debris include non-operational satellites, rocket bodies, and fragments generated from explosions, collisions, or faulty payload assembly.

Loading next visibility...
Identifier
39961, 1981-053NX
Orbit
LEO
Country
Flag of CISCIS
Related business
Manufacturer
Unknown
Mission
Spacecraft
Bus & Motor
Unknown
Mass
Unknown
Launch date (UTC)
1981-06-04 (44 years ago)
Launch vehicle
Unknown
Launch site
Plesetsk Missile And Space Complex (PKMTR)
Object type
Payload
Rocket body
Debris
Shape & HBR
Unknown shape, 0.1 m
Radar Cross Section
Small (<0.1 m²)

Expand to show TLE details & history
Last TLE update: 2 weeks ago

TLE from 2 weeks ago
0 COSMOS 1275 DEB
1 39961U 81053NX  25272.13008310  .00002578  00000-0  18776-2 0  9992
2 39961  82.7666  58.6109 0053951 328.9122 153.8389 13.95152451574070
Epoch: 2025-09-29T03:07Z
TLE epoch observation values (Epoch: 2025-09-29T03:07:19.179Z)
Latitude
56.37987°
Longitude
172.69621°
Altitude
955.388 km
Speed
7.361 km/s
True Right ascension
15h 10m 39s
True Declination
56° 13' 31"
Sunlit
Object was in daylight at epoch
Visualization orbit readout
Latitude
Unknown
Longitude
Unknown
Altitude
Unknown
Speed
Unknown
Apparent Right ascension
Unknown
Apparent Declination
Unknown
Sunlit
N/A
Visualization observer readout
Local Sidereal Time
13:04:12
Azimuth
Unknown
Elevation
Unknown
Doppler factor
Unknown
Orbital elements
Apogee altitude
947.066 km
Perigee altitude
868.45 km
Semi-major axis
7,285.895 km
Eccentricity
0.0054
Inclination
82.7666°
RAAN
58.6109°
Arg. of periapsis
328.9122°
True anomaly
154.10984°
Mean anomaly
153.8389°
Eccentric anomaly
153.97453°
Mean motion
3.48995 °/min
Orbital period
103.15 mins
BSTAR
0.0018776
Loading maneuver chart data...
Computing Atmospheric mass density...

Documentation

Showing up to 5 results
|